Location: Brede
(50.9167°N, 0.6000°E)
Time: 09:01:08
(UTC+00:00)

Tiros 1 - Pass Details

Date: 03 December 2020
Orbit: 630 x 663 km, 48.4° (Epoch: 16 January)

Event Time Altitude Azimuth Distance (km) Brightness Sun altitude
Rises 16:52:41 0° 270° (W) 2,995 11.9 -8.9°
Reaches altitude 10° 16:55:03 10° 267° (W) 2,081 11.0 -9.3°
Maximum altitude 16:59:49 63° 187° (S) 735 7.6 -9.9°
Drops below altitude 10° 17:04:31 10° 107° (ESE) 2,065 9.3 -10.6°
Enters shadow 17:04:59 - 106° (ESE) 2,244 9.5 -10.7°
